Location: Unspecified
(48.2082°N, 0.0000°E)
Time: 16:28:07
(UTC+00:00)

Tiros 1 despin weight - Pass Details

Date: 23 June 2019
Orbit: 594 x 642 km, 48.2° (Epoch: 21 July)

Event Time Altitude Azimuth Distance (km) Brightness Sun altitude
Rises 03:22:40 0° 283° (WNW) 2,834 ? -5.5°
Reaches altitude 10° 03:24:59 10° 279° (W) 1,929 ? -5.2°
Maximum altitude 03:29:19 59° 201° (SSW) 688 ? -4.7°
Drops below altitude 10° 03:33:40 10° 122° (ESE) 1,926 ? -4.2°
Sets 03:35:58 0° 118° (ESE) 2,830 ? -3.9°
